(704) Interamnia

Orbital Elements

The following orbital elements are taken from MPC 31002:
  (704) Interamnia
Epoch 2001 Apr. 1.0 TT = JDT 2452000.5                  Goffin
M 326.12022              (2000.0)            P               Q
n   0.18392367     Peri.   94.70879     +0.91981255     -0.26128716
a   3.0622758      Node   280.65511     +0.11734009     +0.89505118
e   0.1459556      Incl.   17.32770     +0.37440110     +0.36140339
P   5.36           H    5.94          G  -0.02           U   0
From 2007 observations at 62 oppositions, 1910-1997, mean residual 0".53.
An explanation of the orbital elements is available.

These orbital elements are also available in forms suitable for loading into a number of popular planetarium-type software programs.


Ephemeris

The following ephemeris is at intervals of five days. A daily ephemeris covering the same time interval is also available.

Date    TT    R. A. (2000) Decl.     Delta      r     Elong.  Phase     V
 
2001 07 10    00 34.65   +23 29.2    2.428    2.637    90.3    22.7    11.3
2001 07 15    00 38.35   +24 30.4    2.367    2.635    93.6    22.6    11.3
2001 07 20    00 41.63   +25 30.1    2.307    2.633    97.1    22.5    11.2
2001 07 25    00 44.46   +26 28.1    2.248    2.630   100.5    22.3    11.1
2001 07 30    00 46.80   +27 24.0    2.190    2.628   104.1    22.0    11.1
2001 08 04    00 48.62   +28 17.5    2.133    2.626   107.7    21.6    11.0
2001 08 09    00 49.88   +29 08.3    2.078    2.625   111.5    21.1    10.9
2001 08 14    00 50.54   +29 55.7    2.025    2.623   115.3    20.4    10.8
2001 08 19    00 50.58   +30 39.4    1.975    2.621   119.1    19.7    10.7
2001 08 24    00 49.97   +31 18.5    1.928    2.620   123.1    18.9    10.7
2001 08 29    00 48.71   +31 52.6    1.883    2.619   127.1    17.9    10.6
2001 09 03    00 46.82   +32 21.0    1.842    2.618   131.1    16.9    10.5
2001 09 08    00 44.32   +32 43.0    1.806    2.617   135.0    15.8    10.4
2001 09 13    00 41.27   +32 58.0    1.773    2.616   138.9    14.6    10.3
2001 09 18    00 37.74   +33 05.5    1.745    2.616   142.6    13.5    10.2
2001 09 23    00 33.84   +33 05.0    1.723    2.616   146.0    12.4    10.1
2001 09 28    00 29.70   +32 56.5    1.706    2.615   148.9    11.4    10.1
2001 10 03    00 25.45   +32 40.0    1.694    2.615   151.1    10.6    10.0
2001 10 08    00 21.24   +32 16.1    1.688    2.615   152.4    10.2    10.0
2001 10 13    00 17.22   +31 45.4    1.689    2.616   152.7    10.1    10.0
2001 10 18    00 13.52   +31 08.7    1.695    2.616   151.8    10.4    10.0
2001 10 23    00 10.27   +30 27.2    1.707    2.617   150.0    11.0    10.0
2001 10 28    00 07.58   +29 42.3    1.726    2.617   147.3    11.8    10.1
2001 11 02    00 05.52   +28 55.4    1.750    2.618   144.0    12.9    10.2
2001 11 07    00 04.14   +28 07.5    1.779    2.619   140.3    14.0    10.3
2001 11 12    00 03.46   +27 20.1    1.813    2.620   136.4    15.1    10.4
2001 11 17    00 03.49   +26 34.0    1.853    2.622   132.2    16.2    10.5
2001 11 22    00 04.24   +25 50.3    1.896    2.623   128.1    17.2    10.6
2001 11 27    00 05.68   +25 09.7    1.944    2.625   123.9    18.2    10.6
2001 12 02    00 07.78   +24 32.8    1.995    2.627   119.7    19.0    10.7
2001 12 07    00 10.49   +23 59.8    2.049    2.629   115.5    19.8    10.8
2001 12 12    00 13.79   +23 31.0    2.107    2.631   111.4    20.4    10.9
2001 12 17    00 17.63   +23 06.5    2.166    2.633   107.4    20.9    11.0
2001 12 22    00 21.98   +22 46.4    2.227    2.635   103.4    21.3    11.1
2001 12 27    00 26.79   +22 30.5    2.290    2.638    99.5    21.6    11.2
2002 01 01    00 32.02   +22 18.8    2.354    2.641    95.7    21.7    11.2
2002 01 06    00 37.64   +22 10.9    2.420    2.644    92.0    21.8    11.3

Back to Bright Minor Planets

Astronomical Headlines Index

MPC